Погода в Подлесном

Россия / Оренбургская область     53°11′21″N   52°54′19″E
темп.,
°C
ветер,
м/с
пор.,
м/с
влажн.,
%
обл.,
%
осадки,
мм/ч
давл.,
гПа
погр.,
м
25 июля, вс
вс2523:00+19зсз41055100 0.0 1010327
02:00+16ссз487147 0.1 1012202
05:00+13ссз36911 0.1 101391
08:00+15с47750 0.0 1016363
11:00+20с56510 0.0 10171314
14:00+22ссз55330 0.0 10172054
17:00+23ссз55283 0.0 10182335
20:00+20ссз57353 0.0 1019591
26 июля, пн
пн2623:00+13ссз37440 0.0 102198
02:00+11ссз33520 0.0 102230
05:00+10ссз22590 0.0 102215
08:00+14ссз34501 0.0 1023188
11:00+20ссз35355 0.0 10231961
14:00+22сз54289 0.0 10222565
17:00+24ссз562572 0.0 10202908
20:00+21ссз46325 0.0 1020299
27 июля, вт
вт2723:00+14с22527 0.0 102111
02:00+13сз11565 0.0 102110
05:00+12зюз11595 0.0 102010
08:00+17з23495 0.0 1020190
11:00+22зсз45375 0.0 10191734
14:00+23зсз563494 0.0 10172171
17:00+21зсз7846100 0.0 1017854
20:00+22з244829 0.0 1015237
28 июля, ср
ср2823:00+17з247359 0.1 101570
02:00+13сз37910 0.0 1015131
05:00+12ссз34931 0.0 101660
08:00+15с23701 0.0 1017205
11:00+20с56360 0.0 10171283
14:00+23с44275 0.0 10161929
17:00+24ссз34245 0.0 10152162
20:00+22сз11330 0.0 101511
29 июля, чт
чт2923:00+15зсз11420 0.0 101511
02:00+15ююз22430 0.0 101411
05:00+13юз33490 0.0 101320
08:00+17юз474013 0.0 1013196
11:00+25зюз5637100 0.0 1011876
14:00+27з5734100 0.0 10102616
17:00+24з5945100 0.3 1010460
20:00+16ссз3690100 1.4 1011170